Location: ????????
(56.1167°N, 38.6333°E)
Time: 12:27:44
(UTC+00:00)

SJ-12 - Pass Details

Date: 18 November 2025
Orbit: 517 x 528 km, 97.8° (Epoch: 10 December)

Event Time Altitude Azimuth Distance (km) Brightness Sun altitude
Rises 13:56:42 0° 138° (SE) 2,647 7.1 -6.2°
Reaches altitude 10° 13:58:55 10° 129° (SE) 1,760 6.1 -6.5°
Maximum altitude 14:02:21 33° 64° (ENE) 895 4.4 -6.9°
Drops below altitude 10° 14:05:47 10° 360° (N) 1,767 6.2 -7.4°
Sets 14:08:01 0° 351° (N) 2,659 7.2 -7.7°
